Wind_Speed
15 15 16 16 16 17 19 20 20 20 21 22 22 22 22 21 21 21 22 23 24 24 24 23 23 22 21 21 20 18 17 16 15 15 13 12 11 10 10 10 10 9 9
17 16 17 18 18 19 20 21 21 22 23 24 24 24 23 22 23 23 23 24 24 25 26 26 25 24 24 23 22 20 19 17 16 16 15 15 14 13 12 12 12 11 10
18 18 19 19 20 22 23 23 23 24 25 25 23 24 24 25 24 25 25 25 25 25 25 26 26 26 26 25 24 23 22 20 19 19 18 18 17 16 15 13 13 12 12
20 20 20 21 23 25 26 26 27 27 26 26 26 26 26 25 25 25 25 26 26 26 26 26 28 28 27 28 27 26 25 25 24 23 22 22 21 20 18 17 15 15 14
22 24 24 25 27 28 29 29 30 30 30 29 30 29 30 31 29 28 26 26 27 27 27 27 28 29 29 28 29 28 29 28 27 26 25 25 25 24 22 21 20 18 17
26 28 29 29 31 31 31 32 34 34 35 34 33 33 33 33 33 33 31 29 29 29 29 29 29 30 31 30 30 30 30 31 30 30 29 29 29 28 27 26 24 23 21
28 30 30 31 32 34 34 36 37 37 36 36 38 38 38 37 36 35 33 33 30 29 31 31 31 32 32 32 31 33 34 33 34 33 33 33 33 32 31 30 29 27 26
31 32 32 33 35 37 37 38 39 40 39 36 36 36 40 37 35 35 34 34 33 34 34 34 34 34 35 36 36 35 33 34 37 39 37 36 38 37 37 35 33 32 31
33 34 35 35 36 38 38 38 37 38 38 36 35 36 40 42 40 38 38 36 36 37 34 35 37 39 39 40 38 40 37 39 38 42 43 44 41 42 41 39 38 37 36
33 34 35 35 36 37 37 37 36 36 36 35 35 34 36 39 40 42 41 38 38 34 36 36 36 37 38 43 48 46 36 44 45 44 46 47 51 45 43 44 43 42 40
33 33 33 32 32 33 33 33 31 33 33 35 35 36 35 33 34 38 44 43 42 42 42 41 37 36 37 40 43 41 42 46 50 44 43 43 40 42 42 52 48 47 48
33 33 33 34 34 35 35 33 34 34 34 35 33 34 33 35 37 38 42 44 44 42 39 36 35 35 36 36 38 35 40 38 41 48 43 40 34 40 38 28 36 53 46
33 34 35 36 35 35 36 36 36 32 30 33 35 32 34 34 36 37 39 40 40 37 34 31 29 29 31 34 35 39 37 39 37 34 39 40 37 32 31 30 28 30 40
32 34 35 35 36 36 37 37 36 34 36 37 35 34 33 34 33 35 35 34 35 35 32 30 31 33 33 34 34 38 39 42 38 41 39 35 41 33 32 31 34 34 35
32 32 32 32 32 34 35 36 35 35 35 34 33 32 31 31 31 29 29 31 33 36 34 30 29 27 29 27 30 36 40 41 33 34 34 31 36 27 29 32 36 33 32
30 30 30 29 28 28 28 28 28 29 31 31 30 30 30 29 27 26 28 30 31 32 32 27 29 29 32 30 29 28 33 26 26 31 27 26 26 27 29 29 27 26 27
28 28 27 27 26 25 25 26 28 28 27 28 28 28 26 25 24 26 28 29 30 30 28 28 30 34 32 25 26 27 26 19 20 25 24 27 27 26 25 23 25 26 27
28 27 26 26 26 25 26 26 25 25 24 24 24 23 22 23 24 25 27 27 25 24 26 28 31 27 23 21 22 27 28 22 18 21 23 25 23 23 25 24 26 28 28
27 27 25 25 24 21 21 20 20 19 20 20 20 21 22 23 23 24 23 23 23 26 29 29 24 22 22 21 24 28 21 21 17 16 17 19 21 21 23 25 25 26 28
19 20 20 19 17 15 15 16 16 18 18 18 19 21 22 21 21 22 23 24 26 26 24 23 24 24 23 23 23 24 21 21 22 21 19 20 20 21 23 26 26 27 30
16 15 13 12 11 12 13 15 16 17 16 17 19 20 21 20 20 22 22 21 21 20 22 24 23 23 23 24 24 23 23 21 22 23 24 24 25 25 27 29 30 32 34
13 11 10 10 9 10 12 13 11 9 7 6 11 13 12 10 12 15 16 18 19 20 21 23 25 25 26 26 26 27 27 28 29 28 29 29 31 31 32 31 27 22 20
10 9 8 7 6 2 3 4 3 5 6 7 10 12 14 15 17 18 19 20 21 21 23 24 25 26 26 27 27 28 28 29 29 30 29 29 31 28 23 21 20 21 22
8 6 5 4 2 4 5 5 6 7 9 11 13 15 16 17 19 20 21 22 22 22 22 23 24 25 25 26 26 26 26 27 26 27 25 22 23 21 21 22 22 22 24
4 5 5 6 4 6 8 9 10 12 14 15 17 18 18 19 20 22 23 24 24 24 24 24 25 25 26 26 24 25 25 24 23 24 21 19 22 23 24 25 25 26 27
5 8 8 5 6 9 11 13 15 16 17 18 19 21 21 21 22 23 25 25 25 25 25 25 25 25 25 25 24 23 23 23 22 24 24 22 23 27 26 26 27 29 30
Wind_Direction
266 269 271 273 276 280 282 284 286 288 289 289 288 287 286 286 286 288 290 292 293 296 296 298 298 300 302 303 304 304 308 305 298 293 290 286 285 283 280 275 273 270 268
264 266 270 273 277 279 281 284 287 290 290 289 287 286 285 285 285 285 286 288 292 293 295 296 296 295 295 295 294 292 291 291 287 281 279 279 278 274 272 274 272 268 264
262 267 272 274 275 276 279 282 286 288 290 290 289 289 286 285 285 286 285 287 288 288 290 292 293 293 293 291 288 284 282 280 277 270 266 265 265 266 267 266 266 267 264
267 268 268 269 272 275 278 281 284 286 287 289 288 287 286 284 285 288 289 288 287 286 286 288 290 292 291 289 285 282 278 277 277 274 269 265 264 263 263 264 262 262 262
269 271 270 270 272 275 279 282 283 283 284 286 287 286 286 286 286 284 285 286 287 287 285 285 287 288 288 286 283 279 277 273 272 272 269 266 264 263 262 260 262 261 261
270 269 270 271 274 276 278 280 280 282 286 287 286 282 280 281 283 285 287 286 285 284 283 283 283 284 283 281 279 277 274 272 268 268 266 262 259 259 258 258 256 256 256
275 275 273 272 273 274 275 278 282 285 286 287 286 285 284 283 283 286 286 284 285 281 278 279 279 278 277 278 278 277 274 271 269 263 264 263 260 257 255 254 253 254 254
278 278 276 276 276 277 278 280 282 284 286 287 287 288 288 283 281 282 281 281 280 281 279 277 276 274 275 275 276 276 276 276 273 267 259 258 258 255 253 252 251 251 252
275 275 275 275 275 276 278 279 281 283 285 286 287 287 288 290 292 289 288 287 288 285 281 277 275 272 271 271 273 276 274 270 271 267 261 255 251 252 251 250 249 249 249
272 272 272 274 274 275 276 277 277 280 284 286 286 285 283 286 290 293 294 295 295 291 285 283 283 277 275 275 267 275 277 273 266 266 270 260 256 247 248 249 247 247 248
275 274 275 276 277 278 280 280 281 280 282 283 282 283 283 285 286 290 293 294 291 290 290 292 289 286 284 285 280 290 288 288 279 262 263 272 276 283 268 249 244 245 244
274 276 277 277 277 277 278 279 279 281 282 280 279 282 283 284 287 288 289 290 291 292 292 294 292 288 285 284 284 282 281 279 289 288 285 277 270 267 264 277 276 248 249
274 274 274 274 275 276 277 277 278 279 276 276 286 283 286 288 288 290 291 294 295 299 302 306 304 298 286 285 284 283 287 286 281 281 282 294 268 261 264 273 277 277 260
274 274 275 278 280 280 279 278 278 279 276 281 284 286 286 287 290 292 294 298 302 302 306 309 315 309 302 295 287 285 286 291 276 275 284 283 268 260 263 272 270 264 262
278 279 280 280 281 280 278 279 280 280 282 284 286 286 287 291 292 293 300 304 305 306 309 319 315 312 318 306 300 290 279 292 272 266 268 268 259 265 259 264 267 266 265
277 280 281 282 282 282 280 279 280 283 284 285 286 287 288 289 291 300 304 303 307 310 312 313 310 309 310 310 306 313 302 277 261 262 252 261 254 251 260 265 270 271 272
278 280 281 284 284 282 281 282 282 282 282 284 284 283 283 287 294 299 300 300 304 308 308 308 307 308 309 306 305 307 323 284 264 252 248 250 251 254 259 266 268 272 272
277 277 282 284 285 284 284 283 283 284 286 286 286 286 289 291 295 299 300 302 305 310 305 305 309 307 318 309 303 308 312 314 286 263 258 255 257 261 265 269 275 276 273
275 277 280 282 281 280 280 282 283 288 291 290 290 290 290 291 292 295 300 302 302 301 303 305 306 311 313 313 307 309 307 315 308 290 276 272 271 272 274 276 275 277 276
272 274 276 276 276 281 285 287 291 294 295 295 296 296 291 291 290 291 296 297 296 295 302 301 303 306 309 306 309 311 308 302 300 295 288 281 275 273 273 273 276 276 275
272 269 267 271 280 288 291 296 295 294 296 301 304 301 295 288 288 291 289 291 295 296 298 301 303 305 307 307 305 304 302 296 291 291 290 287 284 283 281 277 277 276 274
258 258 267 273 287 300 303 302 299 299 309 307 310 318 328 318 299 294 297 300 302 303 302 304 304 304 303 302 299 296 295 292 290 287 285 285 281 279 279 282 276 269 265
255 259 265 278 292 316 15 22 21 328 316 317 320 320 319 315 312 314 314 312 311 311 311 308 306 305 304 303 301 299 295 292 289 288 288 288 285 287 280 272 267 267 268
252 254 250 245 242 262 305 314 311 316 316 315 315 313 312 314 317 316 313 312 312 314 313 309 307 307 306 305 304 302 299 297 296 293 292 286 277 271 266 265 267 270 273
228 225 202 189 238 274 291 298 307 311 311 311 311 310 313 315 316 315 316 317 318 316 313 312 310 308 307 307 308 304 302 300 296 290 285 276 273 275 276 278 279 281 282
187 175 182 220 265 283 294 306 308 308 307 308 310 311 313 315 314 313 313 314 314 313 313 312 311 310 308 308 308 305 302 300 296 291 288 283 277 276 275 279 282 282 281
Height
3193 3193 3194 3194 3194 3194 3194 3193 3193 3192 3191 3190 3190 3189 3187 3186 3186 3185 3184 3183 3182 3181 3180 3179 3178 3177 3176 3174 3174 3173 3172 3171 3171 3170 3169 3168 3167 3167 3166 3166 3165 3165 3164
3190 3190 3190 3191 3191 3191 3190 3190 3189 3188 3187 3186 3185 3184 3182 3181 3181 3180 3180 3179 3178 3177 3176 3175 3174 3173 3171 3171 3169 3168 3168 3166 3166 3166 3166 3165 3164 3163 3163 3163 3163 3162 3161
3186 3186 3187 3187 3187 3186 3185 3185 3184 3183 3183 3181 3180 3179 3177 3176 3175 3175 3175 3174 3174 3173 3172 3170 3168 3168 3167 3166 3164 3163 3162 3161 3160 3160 3160 3159 3159 3159 3159 3159 3159 3159 3159
3181 3182 3182 3183 3182 3181 3180 3180 3179 3178 3177 3175 3175 3173 3172 3171 3170 3170 3169 3168 3168 3167 3166 3165 3163 3162 3161 3160 3159 3158 3158 3157 3157 3156 3155 3155 3155 3155 3155 3155 3155 3155 3155
3177 3177 3177 3177 3176 3175 3175 3174 3174 3171 3171 3170 3168 3167 3166 3164 3164 3164 3164 3163 3162 3161 3160 3159 3157 3156 3155 3153 3152 3151 3150 3150 3150 3150 3150 3150 3150 3150 3150 3150 3151 3151 3151
3171 3171 3171 3171 3170 3170 3169 3168 3166 3165 3164 3163 3161 3159 3158 3157 3157 3156 3157 3156 3156 3155 3153 3152 3150 3149 3148 3146 3144 3143 3143 3142 3143 3143 3142 3142 3143 3143 3144 3144 3145 3145 3146
3165 3164 3165 3165 3164 3163 3162 3161 3159 3158 3157 3155 3152 3151 3151 3150 3149 3149 3149 3148 3147 3146 3145 3144 3143 3141 3140 3139 3138 3136 3135 3134 3134 3135 3135 3135 3135 3136 3136 3136 3137 3138 3139
3158 3157 3158 3157 3156 3155 3154 3153 3151 3149 3148 3148 3145 3142 3139 3142 3142 3140 3140 3139 3139 3138 3137 3136 3134 3133 3132 3131 3130 3128 3127 3126 3125 3124 3125 3125 3125 3126 3127 3128 3129 3130 3132
3150 3150 3150 3149 3148 3146 3145 3145 3143 3141 3140 3140 3139 3137 3132 3128 3129 3130 3129 3129 3129 3128 3127 3126 3125 3124 3122 3121 3120 3119 3118 3117 3116 3115 3113 3112 3113 3115 3116 3118 3119 3120 3122
3143 3142 3141 3140 3140 3139 3137 3136 3135 3134 3133 3131 3130 3130 3128 3124 3121 3118 3117 3119 3119 3117 3117 3116 3114 3114 3113 3111 3110 3108 3105 3106 3106 3106 3104 3100 3101 3101 3104 3107 3108 3110 3112
3135 3134 3133 3132 3132 3130 3129 3128 3127 3126 3126 3125 3122 3120 3120 3119 3118 3114 3109 3109 3109 3109 3107 3106 3105 3104 3102 3100 3098 3096 3095 3094 3093 3090 3092 3090 3093 3092 3088 3094 3094 3097 3098
3127 3126 3125 3124 3123 3123 3122 3121 3120 3119 3119 3117 3115 3113 3112 3111 3110 3107 3103 3101 3099 3099 3098 3097 3096 3094 3091 3090 3088 3086 3085 3084 3080 3076 3079 3080 3081 3084 3083 3084 3084 3086 3089
3120 3118 3117 3116 3116 3115 3114 3113 3112 3111 3110 3109 3108 3106 3105 3104 3101 3099 3096 3092 3089 3087 3087 3088 3087 3085 3082 3081 3079 3077 3075 3072 3072 3069 3068 3070 3070 3071 3072 3074 3074 3076 3079
3111 3110 3109 3108 3107 3106 3104 3104 3103 3102 3101 3101 3099 3098 3097 3096 3094 3092 3089 3086 3081 3079 3079 3079 3079 3075 3073 3071 3069 3066 3063 3060 3060 3061 3062 3058 3061 3063 3065 3066 3065 3065 3066
3102 3101 3100 3099 3098 3098 3096 3095 3094 3094 3094 3093 3092 3091 3089 3088 3087 3085 3082 3080 3076 3072 3070 3071 3070 3069 3065 3061 3058 3054 3051 3048 3046 3049 3050 3051 3053 3053 3055 3056 3056 3056 3056
3094 3093 3092 3092 3091 3090 3089 3088 3088 3087 3087 3086 3084 3083 3082 3081 3080 3078 3076 3074 3072 3068 3065 3064 3063 3061 3057 3054 3051 3046 3040 3035 3036 3040 3041 3041 3043 3045 3046 3047 3048 3049 3049
3086 3086 3086 3085 3084 3083 3083 3082 3081 3080 3079 3078 3078 3077 3076 3076 3074 3072 3071 3070 3067 3063 3060 3059 3057 3053 3049 3046 3044 3042 3036 3032 3031 3030 3032 3034 3036 3037 3038 3039 3041 3041 3042
3079 3079 3079 3078 3078 3077 3077 3076 3075 3074 3072 3072 3071 3070 3069 3068 3068 3066 3066 3064 3061 3058 3056 3053 3051 3047 3044 3041 3039 3036 3034 3031 3029 3028 3029 3029 3030 3031 3032 3032 3034 3034 3035
3072 3072 3072 3071 3071 3070 3070 3069 3068 3067 3066 3066 3065 3064 3063 3062 3061 3061 3060 3058 3055 3053 3050 3047 3044 3041 3038 3036 3033 3031 3027 3025 3025 3025 3024 3025 3025 3024 3025 3027 3028 3027 3028
3064 3065 3065 3065 3065 3065 3065 3065 3063 3062 3062 3062 3060 3058 3057 3056 3056 3055 3054 3052 3050 3047 3044 3042 3039 3036 3033 3031 3028 3026 3024 3022 3021 3020 3020 3020 3020 3020 3020 3021 3019 3020 3020
3060 3060 3060 3061 3060 3060 3061 3059 3058 3058 3058 3057 3056 3055 3052 3051 3051 3050 3049 3047 3044 3042 3039 3037 3034 3031 3029 3027 3024 3022 3021 3019 3017 3016 3015 3014 3014 3013 3012 3014 3014 3013 3013
3057 3056 3056 3057 3056 3056 3056 3055 3054 3054 3054 3054 3053 3052 3050 3049 3049 3047 3045 3043 3040 3037 3035 3031 3029 3026 3023 3021 3019 3017 3015 3014 3012 3012 3010 3009 3007 3007 3005 3005 3003 3004 3005
3053 3053 3052 3053 3053 3054 3054 3054 3054 3054 3053 3052 3051 3050 3049 3048 3046 3043 3041 3038 3036 3033 3029 3026 3023 3021 3018 3015 3013 3010 3008 3006 3004 3003 3002 3002 2998 2997 2997 2998 2999 2999 2999
3050 3050 3050 3051 3052 3054 3054 3054 3054 3052 3051 3050 3048 3047 3046 3044 3041 3038 3036 3033 3030 3027 3024 3021 3018 3015 3012 3009 3006 3004 3001 2999 2997 2994 2993 2993 2991 2992 2993 2994 2994 2994 2993
3047 3048 3049 3049 3052 3053 3053 3052 3051 3049 3048 3046 3045 3044 3041 3038 3036 3033 3031 3027 3024 3021 3018 3015 3012 3009 3005 3002 3000 2997 2994 2991 2990 2987 2987 2988 2987 2987 2986 2986 2987 2986 2986
3047 3047 3048 3048 3049 3050 3049 3048 3047 3046 3045 3043 3041 3039 3036 3033 3031 3029 3025 3022 3019 3016 3013 3009 3006 3003 3000 2996 2994 2991 2988 2986 2984 2983 2981 2983 2982 2980 2980 2979 2979 2978 2977